This demonstration page uses our WeatherBlox Daily Observations layout. Learn more.

Left ArrowRight Arrow

Hourly Observations for March 18, 2020

Temp ( °F °C ) Dew Point ( °F °C ) Humidity (%) Winds ( mph kmh ) Pressure ( in mb ) Visibility ( mi km ) Precip ( " mm )
12:51 am 00:51 Clear 50 10 33 0.6 52 52 ENE 6 9 29.83 1010 10 16 0.00 0.00
1:51 am 01:51 Clear 53 11.7 32 0 45 45 Calm 29.80 1009 10 16 0.00 0.00
2:51 am 02:51 Clear 47 8.3 32 0 56 56 NNE 3 6 29.81 1009 10 16 0.00 0.00
3:51 am 03:51 Clear 44 6.7 32 0 63 63 E 3 6 29.79 1009 10 16 0.00 0.00
4:51 am 04:51 Clear 47 8.3 34 1.1 61 61 ESE 3 6 29.79 1009 10 16 0.00 0.00
5:51 am 05:51 Clear 47 8.3 35 1.7 63 63 NE 6 9 29.79 1009 10 16 0.00 0.00
6:51 am 06:51 Sunny 47 8.3 35 1.7 63 63 S 6 9 29.78 1009 10 16 0.00 0.00
7:51 am 07:51 Sunny 49 9.4 37 2.8 64 64 NNW 6 9 29.82 1010 10 16 0.00 0.00
9:51 am 09:51 Sunny 59 15 38 3.3 46 46 SE 12 19 29.81 1010 10 16 0.00 0.00
10:51 am 10:51 Sunny 62 16.7 38 3.3 41 41 SSE 18 30 29.80 1009 10 16 0.00 0.00
11:51 am 11:51 Cloudy 60 15.6 40 4.4 47 47 SSE 17 28 29.83 1010 10 16 0.00 0.00
12:51 pm 12:51 Cloudy 60 15.6 40 4.4 47 47 S 17 28 29.80 1009 10 16 0.00 0.00
1:51 pm 13:51 Cloudy 58 14.4 40 4.4 51 51 S 25 41 29.75 1007 10 16 0.00 0.00
2:51 pm 14:51 Cloudy 56 13.3 43 6.1 62 62 S 21 33 29.75 1008 10 16 0.00 0.00
3:51 pm 15:51 Cloudy 56 13.3 46 7.8 70 70 ESE 14 22 29.70 1006 10 16 0.01 0.25
4:51 pm 16:51 Cloudy with Rain 54 12.2 47 8.3 77 77 S 7 11 29.70 1006 4 6 0.00 0.00
5:02 pm 17:02 Cloudy with Rain 53 11.7 49 9.4 86 86 SW 3 6 29.72 1007 2 3 0.03 0.76
5:11 pm 17:11 Cloudy with Rain 52 11.1 49 9.4 89 89 SSW 3 6 29.71 1006 2 3 0.08 2.03
5:37 pm 17:37 Cloudy with Rain 52 11.1 50 10 93 93 Calm 29.69 1005 3 5 0.16 4.06
5:51 pm 17:51 Cloudy with Rain 51 10.6 50 10 96 96 NNW 6 9 29.66 1004 3 5 0.20 5.08
6:51 pm 18:51 Cloudy with Rain 50 10 50 10 100 100 WNW 12 19 29.73 1007 3 5 0.23 5.84
7:51 pm 19:51 Mostly Cloudy 50 10 47 8.3 89 89 WNW 15 24 29.76 1008 10 16 0.10 2.54
8:01 pm 20:01 Mostly Cloudy 49 9.4 45 7.2 86 86 NW 17 28 29.79 1009 10 16 0.00 0.00
8:51 pm 20:51 Mostly Cloudy 48 8.9 41 5 77 77 NNW 12 19 29.76 1008 10 16 0.00 0.00
9:51 pm 21:51 Mostly Cloudy 48 8.9 39 3.9 71 71 NNW 8 13 29.78 1008 10 16 0.00 0.00
10:51 pm 22:51 Cloudy 48 8.9 40 4.4 74 74 VRB 5 7 29.79 1009 10 16 0.00 0.00
11:51 pm 23:51 Cloudy 47 8.3 39 3.9 74 74 N 7 11 29.80 1009 10 16 0.00 0.00

Powered by AerisWeather